• In Österreich
  • Länderverzeichnis
  • Für 7 Tage
  • Wassertemperatur
  • Satellitenkarten
  • Wetterkarte
  • News
  • Widgets
  • user-avatar
    Anmelden

    Stündliche Wetter Talica

    Heute, 25 September, Dienstag

    Zeit Temperatur Niederschläge Wind Luftdruck Luftfeuchtigkeit
    00:00 +5°C° 0.2 mm 6 m/S 733 mmHg 91%
    01:00 +5°C° 0.2 mm 6 m/S 734 mmHg 90%
    02:00 +6°C° 0 mm 4 m/S 734 mmHg 91%
    03:00 +5°C° 0 mm 5 m/S 735 mmHg 91%
    04:00 +3°C° 0 mm 5 m/S 736 mmHg 91%
    05:00 +3°C° 0 mm 5 m/S 736 mmHg 91%
    06:00 +3°C° 0 mm 5 m/S 737 mmHg 89%
    07:00 +5°C° 0 mm 5 m/S 738 mmHg 88%
    08:00 +5°C° 0 mm 5 m/S 739 mmHg 86%
    09:00 +5°C° 0 mm 5 m/S 739 mmHg 81%
    10:00 +6°C° 0 mm 5 m/S 740 mmHg 77%
    11:00 +7°C° 0 mm 5 m/S 741 mmHg 72%
    12:00 +7°C° 0.1 mm 5 m/S 741 mmHg 69%
    13:00 +8°C° 0.1 mm 5 m/S 742 mmHg 65%
    14:00 +8°C° 0.1 mm 5 m/S 743 mmHg 61%
    15:00 +8°C° 0.1 mm 5 m/S 743 mmHg 64%
    16:00 +7°C° 0.1 mm 4 m/S 744 mmHg 68%
    17:00 +6°C° 0.1 mm 4 m/S 744 mmHg 71%
    18:00 +5°C° 0 mm 4 m/S 745 mmHg 73%
    19:00 +5°C° 0 mm 4 m/S 746 mmHg 76%
    20:00 +4°C° 0 mm 4 m/S 746 mmHg 78%
    21:00 +3°C° 0 mm 3 m/S 747 mmHg 77%
    22:00 +3°C° 0 mm 3 m/S 748 mmHg 77%
    23:00 +2°C° 0 mm 3 m/S 748 mmHg 77%

    Morgen, 26 September, Mittwoch

    Zeit Temperatur Niederschläge Wind Luftdruck Luftfeuchtigkeit
    00:00 +2°C° 0 mm 3 m/S 749 mmHg 79%
    01:00 +1°C° 0 mm 3 m/S 749 mmHg 82%
    02:00 +1°C° 0 mm 3 m/S 749 mmHg 84%
    03:00 +1°C° 0 mm 3 m/S 750 mmHg 87%
    04:00 +1°C° 0 mm 3 m/S 750 mmHg 89%
    05:00 +1°C° 0 mm 3 m/S 750 mmHg 92%
    06:00 +2°C° 0 mm 3 m/S 750 mmHg 88%
    07:00 +3°C° 0 mm 3 m/S 750 mmHg 83%
    08:00 +4°C° 0 mm 3 m/S 751 mmHg 79%
    09:00 +6°C° 0 mm 4 m/S 750 mmHg 72%
    10:00 +7°C° 0 mm 4 m/S 750 mmHg 66%
    11:00 +9°C° 0 mm 5 m/S 750 mmHg 59%
    12:00 +9°C° 0 mm 5 m/S 749 mmHg 58%
    13:00 +10°C° 0 mm 5 m/S 748 mmHg 57%
    14:00 +10°C° 0 mm 6 m/S 748 mmHg 55%
    15:00 +9°C° 0.2 mm 6 m/S 747 mmHg 63%
    16:00 +8°C° 0.2 mm 6 m/S 746 mmHg 70%
    17:00 +7°C° 0.2 mm 6 m/S 745 mmHg 78%
    18:00 +6°C° 1.2 mm 7 m/S 744 mmHg 82%
    19:00 +5°C° 1.2 mm 7 m/S 743 mmHg 85%
    20:00 +5°C° 1.2 mm 8 m/S 742 mmHg 89%
    21:00 +5°C° 1.3 mm 8 m/S 741 mmHg 89%
    22:00 +5°C° 1.3 mm 8 m/S 739 mmHg 89%
    23:00 +5°C° 1.3 mm 8 m/S 738 mmHg 90%

    übermorgen, 27 September, Donnerstag

    Zeit Temperatur Niederschläge Wind Luftdruck Luftfeuchtigkeit
    00:00 +6°C° 0.6 mm 8 m/S 737 mmHg 90%
    01:00 +6°C° 0.6 mm 8 m/S 736 mmHg 90%
    02:00 +6°C° 0.6 mm 8 m/S 736 mmHg 90%
    03:00 +8°C° 1 mm 7 m/S 735 mmHg 91%
    04:00 +8°C° 1 mm 6 m/S 735 mmHg 92%
    05:00 +8°C° 1 mm 5 m/S 735 mmHg 93%
    06:00 +8°C° 0.1 mm 5 m/S 736 mmHg 90%
    07:00 +8°C° 0.1 mm 4 m/S 736 mmHg 88%
    08:00 +7°C° 0.1 mm 4 m/S 736 mmHg 85%
    09:00 +8°C° 0 mm 5 m/S 737 mmHg 77%
    10:00 +9°C° 0 mm 5 m/S 737 mmHg 69%
    11:00 +10°C° 0 mm 6 m/S 737 mmHg 62%
    12:00 +10°C° 0.1 mm 6 m/S 738 mmHg 59%
    13:00 +10°C° 0.1 mm 6 m/S 738 mmHg 57%
    14:00 +11°C° 0.1 mm 7 m/S 738 mmHg 55%
    15:00 +10°C° 0.2 mm 6 m/S 738 mmHg 60%
    16:00 +10°C° 0.2 mm 4 m/S 739 mmHg 65%
    17:00 +9°C° 0.2 mm 3 m/S 739 mmHg 71%
    18:00 +8°C° 0 mm 3 m/S 739 mmHg 72%
    19:00 +8°C° 0 mm 3 m/S 740 mmHg 74%
    20:00 +7°C° 0 mm 3 m/S 740 mmHg 75%
    21:00 +5°C° 0 mm 3 m/S 741 mmHg 76%
    22:00 +5°C° 0 mm 3 m/S 741 mmHg 78%
    23:00 +4°C° 0 mm 3 m/S 741 mmHg 79%

    28 September, Freitag

    Zeit Temperatur Niederschläge Wind Luftdruck Luftfeuchtigkeit
    00:00 +4°C° 0 mm 3 m/S 741 mmHg 81%
    01:00 +4°C° 0 mm 3 m/S 740 mmHg 84%
    02:00 +4°C° 0 mm 2 m/S 740 mmHg 86%
    03:00 +4°C° 0.5 mm 3 m/S 739 mmHg 87%
    04:00 +4°C° 0.5 mm 4 m/S 737 mmHg 88%
    05:00 +5°C° 0.5 mm 5 m/S 736 mmHg 90%
    06:00 +7°C° 1.3 mm 6 m/S 735 mmHg 90%
    07:00 +9°C° 1.3 mm 6 m/S 733 mmHg 91%
    08:00 +11°C° 1.3 mm 7 m/S 732 mmHg 91%
    09:00 +11°C° 1.1 mm 7 m/S 732 mmHg 89%
    10:00 +11°C° 1.1 mm 7 m/S 732 mmHg 86%
    11:00 +11°C° 1.1 mm 7 m/S 731 mmHg 84%
    12:00 +10°C° 0.6 mm 7 m/S 732 mmHg 85%
    13:00 +8°C° 0.6 mm 7 m/S 733 mmHg 85%
    14:00 +7°C° 0.6 mm 6 m/S 734 mmHg 86%
    15:00 +6°C° 0.1 mm 5 m/S 736 mmHg 85%
    16:00 +5°C° 0.1 mm 4 m/S 737 mmHg 85%
    17:00 +5°C° 0.1 mm 3 m/S 739 mmHg 84%
    18:00 +4°C° 0 mm 3 m/S 740 mmHg 87%
    19:00 +4°C° 0 mm 2 m/S 741 mmHg 89%
    20:00 +3°C° 0 mm 2 m/S 741 mmHg 92%
    21:00 +3°C° 0 mm 2 m/S 742 mmHg 93%
    22:00 +3°C° 0 mm 2 m/S 742 mmHg 93%
    23:00 +3°C° 0 mm 2 m/S 743 mmHg 94%

    29 September, Samstag

    Zeit Temperatur Niederschläge Wind Luftdruck Luftfeuchtigkeit
    00:00 +3°C° 0.1 mm 2 m/S 743 mmHg 95%
    01:00 +3°C° 0.1 mm 2 m/S 744 mmHg 95%
    02:00 +3°C° 0.1 mm 2 m/S 744 mmHg 96%
    03:00 +2°C° 0 mm 2 m/S 745 mmHg 96%
    04:00 +2°C° 0 mm 2 m/S 745 mmHg 97%
    05:00 +2°C° 0 mm 1 m/S 745 mmHg 97%
    06:00 +2°C° 0 mm 2 m/S 746 mmHg 94%
    07:00 +2°C° 0 mm 2 m/S 747 mmHg 91%
    08:00 +3°C° 0 mm 2 m/S 747 mmHg 88%
    09:00 +4°C° 0 mm 2 m/S 748 mmHg 81%
    10:00 +5°C° 0 mm 2 m/S 749 mmHg 73%
    11:00 +6°C° 0 mm 2 m/S 749 mmHg 66%
    12:00 +7°C° 0.1 mm 3 m/S 749 mmHg 63%
    13:00 +7°C° 0.1 mm 3 m/S 750 mmHg 59%
    14:00 +7°C° 0.1 mm 3 m/S 750 mmHg 56%
    15:00 +6°C° 0 mm 2 m/S 750 mmHg 60%
    16:00 +5°C° 0 mm 2 m/S 750 mmHg 64%
    17:00 +5°C° 0 mm 1 m/S 751 mmHg 68%
    18:00 +4°C° 0 mm 1 m/S 751 mmHg 71%
    19:00 +3°C° 0 mm 1 m/S 752 mmHg 74%
    20:00 +2°C° 0 mm 1 m/S 752 mmHg 77%
    21:00 +2°C° 0 mm 1 m/S 752 mmHg 78%
    22:00 +1°C° 0 mm 1 m/S 753 mmHg 78%
    23:00 +1°C° 0 mm 1 m/S 753 mmHg 79%

    30 September, Sonntag

    Zeit Temperatur Niederschläge Wind Luftdruck Luftfeuchtigkeit
    00:00 +1°C° 0 mm 1 m/S 753 mmHg 80%
    01:00 -1°C° 0 mm 2 m/S 753 mmHg 82%
    02:00 -1°C° 0 mm 2 m/S 753 mmHg 83%
    03:00 -1°C° 0 mm 2 m/S 752 mmHg 82%
    04:00 0°C° 0 mm 3 m/S 752 mmHg 81%
    05:00 0°C° 0 mm 3 m/S 752 mmHg 80%
    06:00 0°C° 0 mm 4 m/S 752 mmHg 78%
    07:00 +1°C° 0 mm 4 m/S 752 mmHg 75%
    08:00 +3°C° 0 mm 4 m/S 752 mmHg 72%
    09:00 +5°C° 0 mm 5 m/S 751 mmHg 68%
    10:00 +6°C° 0 mm 5 m/S 751 mmHg 63%
    11:00 +8°C° 0 mm 5 m/S 751 mmHg 58%
    12:00 +9°C° 0 mm 5 m/S 751 mmHg 58%
    13:00 +9°C° 0 mm 5 m/S 750 mmHg 57%
    14:00 +9°C° 0 mm 5 m/S 750 mmHg 56%
    15:00 +10°C° 0 mm 4 m/S 750 mmHg 61%
    16:00 +8°C° 0 mm 4 m/S 750 mmHg 65%
    17:00 +8°C° 0 mm 3 m/S 750 mmHg 70%
    18:00 +8°C° 0 mm 3 m/S 750 mmHg 70%
    19:00 +8°C° 0 mm 3 m/S 750 mmHg 71%
    20:00 +6°C° 0 mm 4 m/S 750 mmHg 72%
    21:00 +6°C° 0 mm 4 m/S 749 mmHg 72%
    22:00 +6°C° 0 mm 4 m/S 749 mmHg 72%
    23:00 +6°C° 0 mm 4 m/S 749 mmHg 72%
    Mehr zeigen